Time,TemperatureF,DewpointF,PressureIn,WindDirection,WindDirectionDegrees,WindSpeedMPH,WindSpeedGustMPH,Humidity,HourlyPrecipIn,Conditions,Clouds,dailyrainin,SoftwareType,DateUTC
2013-01-23 00:03:00,17.0,4.0,30.20,WNW,290,22.0,34.0,56,-99.99,,,-99.99,,2013-01-23 05:03:00,
2013-01-23 00:12:00,17.0,4.0,30.20,WNW,290,22.0,34.0,57,-99.99,,,-99.99,,2013-01-23 05:12:00,
2013-01-23 00:22:00,17.0,4.0,30.20,WNW,290,22.0,34.0,57,-99.99,,,-99.99,,2013-01-23 05:22:00,
2013-01-23 00:42:00,16.0,4.0,30.19,WNW,290,20.0,31.0,56,-99.99,,,-99.99,,2013-01-23 05:42:00,
2013-01-23 00:52:00,16.0,4.0,30.19,WNW,290,20.0,36.0,57,-99.99,,,-99.99,,2013-01-23 05:52:00,
2013-01-23 01:02:00,16.0,4.0,30.19,WNW,290,20.0,36.0,57,-99.99,,,-99.99,,2013-01-23 06:02:00,
2013-01-23 01:11:00,16.0,3.0,30.19,WNW,290,18.0,31.0,56,-99.99,,,-99.99,,2013-01-23 06:11:00,
2013-01-23 01:22:00,16.0,3.0,30.19,WNW,290,18.0,31.0,56,-99.99,,,-99.99,,2013-01-23 06:22:00,
2013-01-23 01:32:00,15.0,2.0,30.19,WNW,290,16.0,29.0,55,-99.99,,,-99.99,,2013-01-23 06:32:00,
2013-01-23 01:52:00,16.0,4.0,30.19,WNW,290,18.0,27.0,58,-99.99,,,-99.99,,2013-01-23 06:52:00,
2013-01-23 02:02:00,16.0,4.0,30.19,WNW,290,18.0,27.0,58,-99.99,,,-99.99,,2013-01-23 07:02:00,
2013-01-23 02:11:00,16.0,4.0,30.20,WNW,290,20.0,25.0,59,-99.99,,,-99.99,,2013-01-23 07:11:00,
2013-01-23 02:21:00,16.0,4.0,30.20,WNW,290,20.0,25.0,59,-99.99,,,-99.99,,2013-01-23 07:21:00,
2013-01-23 02:32:00,16.0,5.0,30.21,West,280,20.0,27.0,61,-99.99,,,-99.99,,2013-01-23 07:32:00,
2013-01-23 02:42:00,16.0,5.0,30.21,West,270,20.0,27.0,62,-99.99,,,-99.99,,2013-01-23 07:42:00,
2013-01-23 02:52:00,16.0,5.0,30.21,West,270,20.0,27.0,62,-99.99,,,-99.99,,2013-01-23 07:52:00,
2013-01-23 03:11:00,15.0,5.0,30.22,West,280,18.0,27.0,61,-99.99,,,-99.99,,2013-01-23 08:11:00,
2013-01-23 03:22:00,15.0,5.0,30.22,West,280,18.0,27.0,61,-99.99,,,-99.99,,2013-01-23 08:22:00,
2013-01-23 03:32:00,15.0,4.0,30.22,West,280,18.0,27.0,60,-99.99,,,-99.99,,2013-01-23 08:32:00,
2013-01-23 03:43:00,-999.0,-99.9,30.22,West,280,18.0,25.0,-999,-99.99,,,-99.99,,2013-01-23 08:43:00,
2013-01-23 03:52:00,15.0,6.0,30.22,West,280,18.0,25.0,64,-99.99,,,-99.99,,2013-01-23 08:52:00,
2013-01-23 04:02:00,15.0,6.0,30.22,West,280,18.0,25.0,64,-99.99,,,-99.99,,2013-01-23 09:02:00,
2013-01-23 04:12:00,-999.0,-99.9,30.21,West,280,20.0,29.0,-999,-99.99,,,-99.99,,2013-01-23 09:12:00,
2013-01-23 04:23:00,-999.0,-99.9,30.21,West,280,20.0,29.0,-999,-99.99,,,-99.99,,2013-01-23 09:23:00,
2013-01-23 04:33:00,-999.0,-99.9,30.22,West,280,18.0,25.0,-999,-99.99,,,-99.99,,2013-01-23 09:33:00,
2013-01-23 04:44:00,-999.0,-99.9,30.22,West,280,18.0,25.0,-999,-99.99,,,-99.99,,2013-01-23 09:44:00,
2013-01-23 04:53:00,-999.0,-99.9,30.21,West,280,18.0,25.0,-999,-99.99,,,-99.99,,2013-01-23 09:53:00,
2013-01-23 05:03:00,-999.0,-99.9,30.21,West,280,18.0,25.0,-999,-99.99,,,-99.99,,2013-01-23 10:03:00,
2013-01-23 05:13:00,-999.0,-99.9,30.21,West,280,18.0,25.0,-999,-99.99,,,-99.99,,2013-01-23 10:13:00,
2013-01-23 05:23:00,-999.0,-99.9,30.21,West,280,18.0,25.0,-999,-99.99,,,-99.99,,2013-01-23 10:23:00,
2013-01-23 05:33:00,-999.0,-99.9,30.21,West,280,18.0,25.0,-999,-99.99,,,-99.99,,2013-01-23 10:33:00,
2013-01-23 05:43:00,-999.0,-99.9,30.21,West,280,18.0,25.0,-999,-99.99,,,-99.99,,2013-01-23 10:43:00,
2013-01-23 05:53:00,-999.0,-99.9,30.22,West,280,18.0,22.0,-999,-99.99,,,-99.99,,2013-01-23 10:53:00,
2013-01-23 06:03:00,-999.0,-99.9,30.22,West,280,18.0,22.0,-999,-99.99,,,-99.99,,2013-01-23 11:03:00,
2013-01-23 06:12:00,-999.0,-99.9,30.22,West,280,18.0,22.0,-999,-99.99,,,-99.99,,2013-01-23 11:12:00,
2013-01-23 06:23:00,-999.0,-99.9,30.22,West,280,18.0,22.0,-999,-99.99,,,-99.99,,2013-01-23 11:23:00,
2013-01-23 06:34:00,-999.0,-99.9,30.22,West,280,13.0,22.0,-999,-99.99,,,-99.99,,2013-01-23 11:34:00,
2013-01-23 06:43:00,-999.0,-99.9,30.22,West,280,7.0,22.0,-999,-99.99,,,-99.99,,2013-01-23 11:43:00,
2013-01-23 06:53:00,-999.0,-99.9,30.22,West,280,7.0,22.0,-999,-99.99,,,-99.99,,2013-01-23 11:53:00,
2013-01-23 07:03:00,-999.0,-99.9,30.22,West,280,7.0,22.0,-999,-99.99,,,-99.99,,2013-01-23 12:03:00,
2013-01-23 07:13:00,-999.0,-99.9,30.23,West,280,7.0,20.0,-999,-99.99,,,-99.99,,2013-01-23 12:13:00,
2013-01-23 07:23:00,-999.0,-99.9,30.23,West,280,7.0,20.0,-999,-99.99,,,-99.99,,2013-01-23 12:23:00,
2013-01-23 07:33:00,-999.0,-99.9,30.23,WNW,290,7.0,20.0,-999,-99.99,,,-99.99,,2013-01-23 12:33:00,
2013-01-23 07:43:00,-999.0,-99.9,30.23,West,280,13.0,22.0,-999,-99.99,,,-99.99,,2013-01-23 12:43:00,
2013-01-23 07:53:00,-999.0,-99.9,30.23,West,280,13.0,22.0,-999,-99.99,,,-99.99,,2013-01-23 12:53:00,
2013-01-23 08:04:00,-999.0,-99.9,30.23,West,280,13.0,22.0,-999,-99.99,,,-99.99,,2013-01-23 13:04:00,
2013-01-23 08:13:00,-999.0,-99.9,30.24,WNW,290,7.0,20.0,-999,-99.99,,,-99.99,,2013-01-23 13:13:00,
2013-01-23 08:23:00,-999.0,-99.9,30.24,WNW,290,7.0,20.0,-999,-99.99,,,-99.99,,2013-01-23 13:23:00,
2013-01-23 08:34:00,-999.0,-99.9,30.24,WNW,290,2.0,20.0,-999,-99.99,,,-99.99,,2013-01-23 13:34:00,
2013-01-23 08:43:00,-999.0,-99.9,30.24,WNW,290,2.0,20.0,-999,-99.99,,,-99.99,,2013-01-23 13:43:00,
2013-01-23 08:52:00,16.0,5.0,30.24,North,0,0.0,20.0,61,-99.99,,,-99.99,,2013-01-23 13:52:00,
2013-01-23 09:02:00,16.0,5.0,30.24,North,0,0.0,20.0,61,-99.99,,,-99.99,,2013-01-23 14:02:00,
2013-01-23 09:11:00,16.0,5.0,30.24,North,0,0.0,20.0,61,-99.99,,,-99.99,,2013-01-23 14:11:00,
2013-01-23 09:22:00,16.0,5.0,30.24,North,0,0.0,20.0,61,-99.99,,,-99.99,,2013-01-23 14:22:00,
2013-01-23 09:33:00,17.0,5.0,30.25,WNW,290,2.0,20.0,59,-99.99,,,-99.99,,2013-01-23 14:33:00,
2013-01-23 09:42:00,17.0,6.0,30.25,WNW,290,11.0,25.0,59,-99.99,,,-99.99,,2013-01-23 14:42:00,
2013-01-23 09:52:00,17.0,5.0,30.25,WNW,290,11.0,27.0,58,-99.99,,,-99.99,,2013-01-23 14:52:00,
2013-01-23 10:02:00,17.0,5.0,30.25,WNW,290,11.0,27.0,58,-99.99,,,-99.99,,2013-01-23 15:02:00,
2013-01-23 10:12:00,17.0,5.0,30.25,WNW,290,11.0,27.0,58,-99.99,,,-99.99,,2013-01-23 15:12:00,
2013-01-23 10:22:00,17.0,5.0,30.25,WNW,290,11.0,27.0,58,-99.99,,,-99.99,,2013-01-23 15:22:00,
2013-01-23 10:32:00,17.0,5.0,30.25,WNW,300,13.0,25.0,56,-99.99,,,-99.99,,2013-01-23 15:32:00,
2013-01-23 10:42:00,18.0,5.0,30.25,WNW,300,16.0,25.0,56,-99.99,,,-99.99,,2013-01-23 15:42:00,
2013-01-23 10:52:00,18.0,4.0,30.25,WNW,290,13.0,27.0,54,-99.99,,,-99.99,,2013-01-23 15:52:00,
2013-01-23 11:02:00,18.0,4.0,30.25,WNW,290,13.0,27.0,54,-99.99,,,-99.99,,2013-01-23 16:02:00,
2013-01-23 11:11:00,18.0,4.0,30.25,WNW,290,13.0,27.0,54,-99.99,,,-99.99,,2013-01-23 16:11:00,
2013-01-23 11:22:00,18.0,5.0,30.25,WNW,300,13.0,25.0,56,-99.99,,,-99.99,,2013-01-23 16:22:00,
2013-01-23 11:32:00,18.0,5.0,30.25,WNW,300,13.0,25.0,56,-99.99,,,-99.99,,2013-01-23 16:32:00,
2013-01-23 11:42:00,20.0,5.0,30.24,NW,320,18.0,27.0,53,-99.99,,,-99.99,,2013-01-23 16:42:00,
2013-01-23 11:52:00,20.0,5.0,30.24,NW,320,18.0,27.0,53,-99.99,,,-99.99,,2013-01-23 16:52:00,
2013-01-23 12:11:00,20.0,4.0,30.22,WNW,290,11.0,25.0,49,-99.99,,,-99.99,,2013-01-23 17:11:00,
2013-01-23 12:22:00,20.0,4.0,30.22,WNW,290,11.0,25.0,49,-99.99,,,-99.99,,2013-01-23 17:22:00,
2013-01-23 12:33:00,20.0,5.0,30.21,West,280,13.0,25.0,50,-99.99,,,-99.99,,2013-01-23 17:33:00,
2013-01-23 12:42:00,20.0,4.0,30.20,WNW,290,9.0,25.0,47,-99.99,,,-99.99,,2013-01-23 17:42:00,
2013-01-23 12:52:00,20.0,4.0,30.19,WNW,300,18.0,27.0,48,-99.99,,,-99.99,,2013-01-23 17:52:00,
2013-01-23 13:02:00,20.0,4.0,30.19,WNW,300,18.0,27.0,48,-99.99,,,-99.99,,2013-01-23 18:02:00,
2013-01-23 13:11:00,19.0,4.0,30.19,WNW,300,16.0,22.0,50,-99.99,,,-99.99,,2013-01-23 18:11:00,
2013-01-23 13:22:00,19.0,4.0,30.19,WNW,300,16.0,22.0,50,-99.99,,,-99.99,,2013-01-23 18:22:00,
2013-01-23 13:32:00,19.0,4.0,30.18,NW,310,16.0,25.0,50,-99.99,,,-99.99,,2013-01-23 18:32:00,
2013-01-23 13:52:00,20.0,4.0,30.18,WNW,290,11.0,25.0,49,-99.99,,,-99.99,,2013-01-23 18:52:00,
2013-01-23 14:02:00,20.0,4.0,30.18,WNW,290,11.0,25.0,49,-99.99,,,-99.99,,2013-01-23 19:02:00,
2013-01-23 14:12:00,20.0,5.0,30.18,WNW,300,11.0,25.0,50,-99.99,,,-99.99,,2013-01-23 19:12:00,
2013-01-23 14:22:00,20.0,5.0,30.18,WNW,300,11.0,25.0,50,-99.99,,,-99.99,,2013-01-23 19:22:00,
2013-01-23 14:30:00,22.0,4.0,30.17,NW,310,9.0,36.0,45,-99.99,,,-99.99,,2013-01-23 19:30:00,
2013-01-23 14:32:00,20.0,4.0,30.17,NW,310,9.0,22.0,49,-99.99,,,-99.99,,2013-01-23 19:32:00,
2013-01-23 15:12:00,22.0,4.0,30.17,NW,310,9.0,36.0,45,-99.99,,,-99.99,,2013-01-23 20:12:00,
2013-01-23 15:22:00,22.0,4.0,30.17,NW,310,9.0,36.0,45,-99.99,,,-99.99,,2013-01-23 20:22:00,
2013-01-23 16:02:00,21.0,5.0,30.18,NW,310,13.0,27.0,48,-99.99,,,-99.99,,2013-01-23 21:02:00,
2013-01-23 16:11:00,21.0,5.0,30.18,NW,310,13.0,27.0,48,-99.99,,,-99.99,,2013-01-23 21:11:00,
2013-01-23 16:22:00,21.0,5.0,30.18,NW,310,13.0,27.0,48,-99.99,,,-99.99,,2013-01-23 21:22:00,
2013-01-23 16:32:00,21.0,5.0,30.17,NW,310,13.0,22.0,49,-99.99,,,-99.99,,2013-01-23 21:32:00,
2013-01-23 16:42:00,21.0,5.0,30.17,NW,310,13.0,22.0,49,-99.99,,,-99.99,,2013-01-23 21:42:00,
2013-01-23 16:52:00,21.0,5.0,30.17,NW,310,13.0,22.0,49,-99.99,,,-99.99,,2013-01-23 21:52:00,
2013-01-23 17:12:00,20.0,4.0,30.19,North,0,0.0,4.0,49,-99.99,,,-99.99,,2013-01-23 22:12:00,
2013-01-23 17:22:00,19.0,3.0,30.19,North,0,0.0,0.0,49,-99.99,,,-99.99,,2013-01-23 22:22:00,
2013-01-23 17:32:00,19.0,3.0,30.19,North,0,0.0,0.0,49,-99.99,,,-99.99,,2013-01-23 22:32:00,
2013-01-23 17:52:00,19.0,4.0,30.19,North,0,0.0,0.0,50,-99.99,,,-99.99,,2013-01-23 22:52:00,
2013-01-23 18:02:00,19.0,4.0,30.19,North,0,0.0,0.0,50,-99.99,,,-99.99,,2013-01-23 23:02:00,
2013-01-23 18:12:00,19.0,3.0,30.20,North,0,0.0,2.0,49,-99.99,,,-99.99,,2013-01-23 23:12:00,
2013-01-23 18:22:00,19.0,3.0,30.20,North,0,0.0,2.0,49,-99.99,,,-99.99,,2013-01-23 23:22:00,
2013-01-23 18:32:00,19.0,2.0,30.21,North,0,0.0,0.0,48,-99.99,,,-99.99,,2013-01-23 23:32:00,
2013-01-23 18:42:00,19.0,2.0,30.21,North,0,0.0,0.0,48,-99.99,,,-99.99,,2013-01-23 23:42:00,
2013-01-23 18:52:00,18.0,2.0,30.21,North,0,0.0,2.0,48,-99.99,,,-99.99,,2013-01-23 23:52:00,
2013-01-23 19:02:00,18.0,2.0,30.21,North,0,0.0,2.0,48,-99.99,,,-99.99,,2013-01-24 00:02:00,
2013-01-23 19:11:00,19.0,4.0,30.22,North,0,0.0,0.0,52,-99.99,,,-99.99,,2013-01-24 00:11:00,
2013-01-23 19:22:00,19.0,4.0,30.22,North,0,0.0,0.0,52,-99.99,,,-99.99,,2013-01-24 00:22:00,
2013-01-23 19:32:00,18.0,5.0,30.22,North,0,0.0,2.0,54,-99.99,,,-99.99,,2013-01-24 00:32:00,
2013-01-23 19:42:00,18.0,5.0,30.22,North,0,0.0,0.0,55,-99.99,,,-99.99,,2013-01-24 00:42:00,
2013-01-23 19:52:00,18.0,5.0,30.22,North,0,0.0,0.0,55,-99.99,,,-99.99,,2013-01-24 00:52:00,
2013-01-23 20:02:00,18.0,5.0,30.21,North,0,0.0,0.0,55,-99.99,,,-99.99,,2013-01-24 01:02:00,
2013-01-23 20:12:00,18.0,5.0,30.21,North,0,0.0,0.0,55,-99.99,,,-99.99,,2013-01-24 01:12:00,
2013-01-23 20:22:00,18.0,5.0,30.21,North,0,0.0,0.0,55,-99.99,,,-99.99,,2013-01-24 01:22:00,
2013-01-23 20:32:00,18.0,5.0,30.21,North,0,0.0,0.0,56,-99.99,,,-99.99,,2013-01-24 01:32:00,
2013-01-23 20:42:00,18.0,4.0,30.21,North,0,0.0,2.0,55,-99.99,,,-99.99,,2013-01-24 01:42:00,
2013-01-23 20:52:00,18.0,5.0,30.21,North,0,0.0,0.0,55,-99.99,,,-99.99,,2013-01-24 01:52:00,
2013-01-23 21:02:00,18.0,5.0,30.21,North,0,0.0,0.0,55,-99.99,,,-99.99,,2013-01-24 02:02:00,
2013-01-23 21:11:00,18.0,5.0,30.21,North,0,0.0,0.0,55,-99.99,,,-99.99,,2013-01-24 02:11:00,
2013-01-23 21:22:00,18.0,5.0,30.21,North,0,0.0,0.0,55,-99.99,,,-99.99,,2013-01-24 02:22:00,
2013-01-23 21:32:00,17.0,4.0,30.20,North,0,0.0,0.0,56,-99.99,,,-99.99,,2013-01-24 02:32:00,
2013-01-23 21:42:00,17.0,4.0,30.20,North,0,0.0,0.0,56,-99.99,,,-99.99,,2013-01-24 02:42:00,
2013-01-23 21:52:00,17.0,4.0,30.20,North,0,0.0,0.0,56,-99.99,,,-99.99,,2013-01-24 02:52:00,
2013-01-23 22:02:00,17.0,4.0,30.20,North,0,0.0,0.0,54,-99.99,,,-99.99,,2013-01-24 03:02:00,
2013-01-23 22:11:00,17.0,4.0,30.20,North,0,0.0,2.0,54,-99.99,,,-99.99,,2013-01-24 03:11:00,
2013-01-23 22:22:00,17.0,4.0,30.20,North,0,0.0,2.0,54,-99.99,,,-99.99,,2013-01-24 03:22:00,
2013-01-23 22:32:00,17.0,4.0,30.20,North,0,0.0,2.0,54,-99.99,,,-99.99,,2013-01-24 03:32:00,
2013-01-23 22:42:00,17.0,4.0,30.20,North,0,0.0,11.0,54,-99.99,,,-99.99,,2013-01-24 03:42:00,
2013-01-23 22:52:00,17.0,4.0,30.20,North,0,0.0,11.0,54,-99.99,,,-99.99,,2013-01-24 03:52:00,
2013-01-23 23:02:00,17.0,4.0,30.20,North,0,0.0,11.0,54,-99.99,,,-99.99,,2013-01-24 04:02:00,
2013-01-23 23:11:00,17.0,4.0,30.20,North,0,0.0,4.0,56,-99.99,,,-99.99,,2013-01-24 04:11:00,
2013-01-23 23:22:00,17.0,4.0,30.20,North,0,0.0,4.0,56,-99.99,,,-99.99,,2013-01-24 04:22:00,
2013-01-23 23:32:00,17.0,4.0,30.20,North,0,0.0,4.0,56,-99.99,,,-99.99,,2013-01-24 04:32:00,
2013-01-23 23:42:00,17.0,5.0,30.20,North,0,0.0,11.0,57,-99.99,,,-99.99,,2013-01-24 04:42:00,
2013-01-23 23:52:00,17.0,4.0,30.20,North,0,0.0,9.0,56,-99.99,,,-99.99,,2013-01-24 04:52:00,